DateTimeUTC,F1_A11,F1_S11,BsB_S11,BsG_S11,BsR_S11,BbsB_S11,BbsG_S11,BbsR_S11,BaB_A11,BaG_A11,BaR_A11,Tu_S11,T_S11,Uu_S11,U_S11,P_S11,T1_A11
2021-03-14T09:00:00Z,00000200,21000000,,,,,,,0000.34,-000.43,-000.09,15.9,23.7,,00.0,0639.6,30.8
2021-03-14T09:01:00Z,00000200,21000000,,,,,,,-000.18,0000.17,0000.00,16.0,23.7,,00.0,0639.6,30.9
2021-03-14T09:02:00Z,00000200,21000000,,,,,,,0000.01,-000.03,0000.20,16.0,23.7,,00.0,0639.6,30.9
2021-03-14T09:03:00Z,00000200,61000000,,,,,,,-000.15,-000.07,0000.09,16.0,23.8,,00.0,0639.6,30.9
2021-03-14T09:04:00Z,00000200,41000000,0000.19,0000.43,0000.01,0000.45,-000.03,-000.07,0000.06,0000.03,-000.30,16.4,23.7,,00.0,0640.5,30.9
2021-03-14T09:05:00Z,00000200,01000000,0000.66,0000.14,-000.02,0000.21,0000.18,0000.18,0000.25,0000.09,0000.37,16.5,23.7,,00.0,0640.6,30.9
2021-03-14T09:06:00Z,00000200,01000000,0000.60,-000.03,0000.10,0000.02,-000.03,-000.03,0000.06,0000.27,0000.01,16.5,23.6,,00.0,0640.6,30.9
2021-03-14T09:07:00Z,00000200,01000000,0000.57,0000.08,0000.25,0000.25,0000.05,0000.00,-000.14,-000.11,-000.21,16.5,23.6,,00.0,0640.6,30.9
2021-03-14T09:08:00Z,00000200,01000000,0000.20,0000.07,0000.23,-000.28,-000.07,0000.15,0000.28,0000.30,0000.01,16.5,23.6,,00.0,0640.6,30.9
2021-03-14T09:09:00Z,00000200,01000000,-000.24,0000.09,-000.04,0000.51,0000.19,-000.02,-000.24,-000.09,0000.39,16.4,23.6,,00.0,0640.6,30.9
2021-03-14T09:10:00Z,00000200,01000000,0000.38,0000.27,-000.02,0000.08,-000.03,0000.09,0000.06,-000.16,-000.27,16.3,23.5,,00.0,0640.6,30.8
2021-03-14T09:11:00Z,00000200,01000000,0000.32,-000.08,-000.30,0000.50,0000.10,0000.03,0000.19,-000.01,-000.03,16.3,23.5,,00.0,0640.6,30.8
2021-03-14T09:12:00Z,00000200,01000000,0000.10,-000.01,0000.28,0000.22,0000.22,-000.14,0000.12,0000.20,0000.26,16.2,23.5,,00.0,0640.6,30.8
2021-03-14T09:13:00Z,00000200,01000000,0000.15,0000.35,0000.12,-000.06,0000.11,0000.06,0000.08,0000.32,-000.04,16.3,23.4,,00.0,0640.6,30.8
2021-03-14T09:14:00Z,00000200,01000000,0000.43,0000.41,0000.11,0000.55,0000.30,-000.11,-000.17,0000.03,0000.26,16.3,23.5,,00.0,0640.6,30.8
2021-03-14T09:15:00Z,00000200,01000000,0000.38,0000.24,-000.22,0000.47,-000.01,-000.17,0000.33,0000.16,-000.02,16.4,23.5,,00.0,0640.6,30.8
2021-03-14T09:16:00Z,00000200,01000000,0000.15,-000.05,0000.16,0000.32,0000.29,-000.07,0000.51,0000.01,0000.36,16.4,23.5,,00.0,0640.6,30.8
2021-03-14T09:17:00Z,00000200,01000000,0000.34,-000.12,0000.03,0000.35,0000.18,-000.02,0000.13,0000.36,0000.15,16.5,23.5,,00.0,0640.6,30.9
2021-03-14T09:18:00Z,00000200,01000000,0000.34,-000.07,0000.22,-000.07,-000.10,0000.15,0000.05,0000.15,0000.15,16.5,23.5,,00.0,0640.7,30.9
2021-03-14T09:19:00Z,00000200,01000000,0000.30,0000.02,-000.26,0000.40,0000.07,-000.00,0000.24,-000.10,0000.11,16.5,23.5,,00.0,0640.6,30.8
2021-03-14T09:20:00Z,00000200,01000000,0000.28,0000.31,0000.03,0000.39,0000.06,-000.06,-000.35,0000.02,-000.64,16.4,23.5,,00.0,0640.7,30.8
2021-03-14T09:21:00Z,00000200,01000000,0000.65,0000.17,0000.05,0000.23,0000.17,-000.16,0000.26,0000.10,0000.32,16.3,23.5,,00.0,0640.7,30.8
2021-03-14T09:22:00Z,00000200,01000000,0000.47,0000.10,0000.01,0000.22,0000.16,0000.01,0000.26,0000.13,0000.39,16.3,23.4,,00.0,0640.7,30.8
2021-03-14T09:23:00Z,00000200,01000000,0000.29,0000.22,0000.01,0000.08,-000.04,-000.09,-000.11,0000.15,0000.16,16.2,23.4,,00.0,0640.7,30.8
2021-03-14T09:24:00Z,00000200,01000000,0000.47,-000.17,0000.22,0000.02,0000.03,0000.11,0000.08,0000.01,-000.27,16.1,23.4,,00.0,0640.7,30.8
2021-03-14T09:25:00Z,00000200,01000000,0000.07,0000.16,0000.12,0000.21,0000.20,-000.22,0000.01,0000.21,-000.06,16.1,23.3,,00.0,0640.7,30.8
2021-03-14T09:26:00Z,00000200,01000000,0000.57,0000.09,-000.13,0000.78,-000.01,-000.15,-000.15,-000.65,-000.08,16.0,23.3,,00.0,0640.7,30.8
2021-03-14T09:27:00Z,00000200,01000000,0000.11,0000.19,0000.16,0000.64,0000.17,-000.06,0000.13,0000.15,0000.08,16.0,23.3,,00.0,0640.8,30.8
2021-03-14T09:28:00Z,00000200,01000000,-000.09,0000.13,0000.07,0000.80,-000.04,-000.09,0000.01,-000.01,-000.12,16.0,23.2,,00.0,0640.8,30.8
2021-03-14T09:29:00Z,00000200,01000000,0000.03,0000.22,0000.06,0000.52,0000.12,-000.13,-000.23,-000.14,0000.17,16.1,23.2,,00.0,0640.8,30.8
2021-03-14T09:30:00Z,00000200,01000000,0000.33,0000.39,0000.24,0000.01,-000.08,-000.08,0000.20,0000.45,0000.28,16.1,23.3,,00.0,0640.8,30.8
2021-03-14T09:31:00Z,00000200,01000000,0000.11,0000.16,-000.02,0000.03,0000.10,0000.00,0000.24,0000.26,-000.06,16.2,23.3,,00.0,0640.8,30.8
2021-03-14T09:32:00Z,00000200,01000000,0000.38,0000.04,-000.06,0000.67,0000.03,-000.14,-000.05,-000.24,-000.11,16.2,23.3,,00.0,0640.8,30.8
2021-03-14T09:33:00Z,00000200,01000000,0000.38,0000.22,0000.09,0000.70,0000.06,-000.02,0000.15,0000.03,-000.01,16.3,23.4,,00.0,0640.8,30.8
2021-03-14T09:34:00Z,00000200,01000000,0000.88,0000.42,0000.05,0000.48,0000.15,-000.12,0000.24,0000.13,0000.24,16.4,23.4,,00.0,0640.8,30.8
2021-03-14T09:35:00Z,00000200,01000000,0001.00,0000.02,0000.09,0000.35,0000.03,0000.09,-000.10,0000.01,-000.10,16.4,23.4,,00.0,0640.8,30.9
2021-03-14T09:36:00Z,00000200,01000000,0000.50,0000.21,-000.08,0000.08,-000.11,-000.01,-000.06,0000.26,0000.15,16.5,23.5,,00.0,0640.8,30.9
2021-03-14T09:37:00Z,00000200,01000000,0000.51,0000.17,-000.07,0000.07,-000.09,-000.13,-000.05,-000.17,0000.49,16.5,23.5,,00.0,0640.8,30.9
2021-03-14T09:38:00Z,00000200,01000000,0000.08,0000.19,-000.03,0000.20,0000.17,0000.05,0000.39,0000.24,-000.08,16.5,23.5,,00.0,0640.8,30.9
2021-03-14T09:39:00Z,00000200,01000000,0000.18,0000.01,-000.17,0000.11,0000.04,-000.24,0000.32,0000.16,0000.32,16.6,23.5,,00.0,0640.9,30.9
2021-03-14T09:40:00Z,00000200,01000000,0000.50,0000.16,0000.02,0000.17,-000.04,0000.04,-000.02,0000.34,-000.28,16.6,23.6,,00.0,0640.8,30.9
2021-03-14T09:41:00Z,00000200,01000000,0000.55,0000.23,0000.21,0000.00,0000.15,0000.09,0000.07,-000.45,0000.07,16.7,23.6,,00.0,0640.8,30.9
2021-03-14T09:42:00Z,00000200,01000000,0000.52,-000.09,0000.03,0000.67,-000.00,0000.05,0000.41,0000.39,0000.41,16.7,23.6,,00.0,0640.8,30.9
2021-03-14T09:43:00Z,00000200,01000000,0000.64,0000.44,0000.24,0000.75,0000.11,-000.02,-000.02,0000.36,0000.15,16.8,23.6,,00.0,0640.8,30.9
2021-03-14T09:44:00Z,00000200,01000000,0000.35,0000.20,0000.15,0000.40,0000.04,0000.01,0000.16,0000.35,-000.17,16.8,23.7,,00.0,0640.8,30.9
2021-03-14T09:45:00Z,00000200,01000000,0000.52,0000.15,0000.34,-000.14,0000.08,-000.03,0000.53,0000.28,0000.54,16.8,23.7,,00.0,0640.8,30.9
2021-03-14T09:46:00Z,00000200,01000000,0000.17,0000.19,0000.09,0000.59,0000.00,-000.20,0000.59,0000.81,0000.33,16.9,23.7,,00.0,0640.8,30.9
2021-03-14T09:47:00Z,00000200,01000000,-000.11,0000.26,0000.16,0000.16,0000.12,0000.12,0000.42,0000.15,-000.06,16.9,23.7,,00.0,0640.8,30.9
2021-03-14T09:48:00Z,00000200,01000000,0000.67,0000.16,0000.12,0000.50,0000.36,-000.03,-000.03,0000.22,0000.48,16.8,23.7,,00.0,0640.8,30.9
2021-03-14T09:49:00Z,00000200,01000000,0000.50,0000.12,0000.20,0000.66,0000.22,0000.01,-000.22,-000.09,-000.70,16.7,23.7,,00.0,0640.8,30.9
2021-03-14T09:50:00Z,00000200,01000000,0000.14,0000.07,0000.31,-000.15,0000.13,-000.12,0000.26,-000.20,0000.25,16.6,23.7,,00.0,0640.8,30.9
2021-03-14T09:51:00Z,00000200,01000000,0000.49,0000.17,0000.09,0000.52,-000.10,0000.24,-000.05,-000.16,0000.19,16.6,23.6,,00.0,0640.8,30.8
2021-03-14T09:52:00Z,00000200,01000000,0000.23,0000.26,0000.20,0000.48,-000.10,0000.04,0000.01,0000.23,0000.15,16.5,23.6,,00.0,0640.8,30.8
2021-03-14T09:53:00Z,00000200,01000000,0000.01,0000.16,-000.04,0000.41,0000.34,0000.14,0000.04,0000.12,-000.35,16.4,23.6,,00.0,0640.8,30.8
2021-03-14T09:54:00Z,00000200,01000000,0001.09,0000.19,0000.21,0000.02,-000.03,0000.14,-000.11,-000.46,0000.02,16.4,23.5,,00.0,0640.8,30.8
2021-03-14T09:55:00Z,00000200,01000000,0000.14,0000.10,0000.02,0000.48,0000.16,0000.03,-000.25,0000.11,0000.08,16.3,23.5,,00.0,0640.8,30.8
2021-03-14T09:56:00Z,00000200,01000000,-000.15,0000.02,0000.06,0000.43,-000.04,0000.11,-000.00,-000.38,-000.07,16.2,23.4,,00.0,0640.8,30.8
2021-03-14T09:57:00Z,00000200,41000000,,,,,,,0000.12,0000.24,-000.21,16.2,23.5,,00.0,0640.8,30.8
2021-03-14T09:58:00Z,00000200,61000000,,,,,,,-000.16,0000.04,0000.08,15.9,23.6,,00.0,0639.8,30.8
2021-03-14T09:59:00Z,00000200,21000000,,,,,,,-000.07,-000.24,-000.21,15.9,23.7,,00.0,0639.8,30.8
